Oelwein, IA

9:02 AM CDT on August 23, 2019 (GMT -0500)
Oelwein Municipal

Weather History for KOLZ - June, 2019

Change the Weather History Date:

Monday, June 10, 2019

  Actual Average Record
Temperature  
Mean Temperature 66 °F -  
Max Temperature 78 °F 77 °F 93 °F (2016)
Min Temperature 53 °F 55 °F 42 °F (1955)
Growing Degree Days 16 (Base 50)    
Moisture  
Dew Point 44 °F    
Average Humidity 51    
Maximum Humidity 94    
Minimum Humidity 22    
Precipitation  
Precipitation 0.00 in - - ()
Sea Level Pressure  
Sea Level Pressure 30.18 in    
Wind  
Wind Speed 12 mph (NW)    
Max Wind Speed 25 mph    
Max Gust Speed 31 mph    
Visibility 10 miles    
Events      
Averages and records for this station are not official NWS values.
T = Trace of Precipitation, MM = Missing Value Source: NWS Daily Summary

Daily Weather History Graph

Daily Weather History Graph

Search for Another Location

Airport or City:

Astronomy

Jun. 10, 2019 Rise Set
Actual Time 5:29 AM CDT 8:45 PM CDT
Civil Twilight 4:54 AM CDT 9:20 PM CDT
Nautical Twilight 4:09 AM CDT 10:05 PM CDT
Astronomical Twilight 3:15 AM CDT 10:59 PM CDT
Moon 1:25 PM CDT (6/10) 1:53 AM CDT (6/10)
Length of Visible Light 16h 25m
Length of Day
15h 15m
First Quarter, 55% of the Moon is Illuminated
Jun 10
First Quarter
Jun 17
Full
Jun 25
Last Quarter
Jul 2
New
Jul 9
First Quarter

Hourly Weather History & Observations

Time (CDT) Temp. Dew Point Humidity Pressure Visibility Wind Dir Wind Speed Gust Speed Precip Events Conditions
12:15 AM 60.8 °F 51.8 °F 72% 30.15 in 10.0 mi NNW 12.7 mph 19.6 mph N/A   Overcast
12:35 AM 60.8 °F 51.8 °F 72% 30.16 in 10.0 mi NNW 13.8 mph - N/A   Overcast
12:55 AM 60.8 °F 51.8 °F 72% 30.16 in 10.0 mi NNW 13.8 mph 20.7 mph N/A   Mostly Cloudy
1:15 AM 59.0 °F 51.8 °F 77% 30.16 in 10.0 mi NNW 10.4 mph - N/A   Mostly Cloudy
1:35 AM 59.0 °F 51.8 °F 77% 30.16 in 10.0 mi NNW 10.4 mph - N/A   Overcast
1:55 AM 57.2 °F 51.8 °F 82% 30.16 in 10.0 mi NNW 9.2 mph - N/A   Scattered Clouds
2:15 AM 55.4 °F 51.8 °F 88% 30.16 in 10.0 mi NW 9.2 mph - N/A   Clear
2:35 AM 55.4 °F 51.8 °F 88% 30.17 in 10.0 mi NW 8.1 mph - N/A   Clear
2:55 AM 55.4 °F 51.8 °F 88% 30.17 in 10.0 mi NW 8.1 mph - N/A   Clear
3:15 AM 53.6 °F 51.8 °F 94% 30.17 in 10.0 mi WNW 6.9 mph - N/A   Clear
3:35 AM 53.6 °F 51.8 °F 94% 30.17 in 10.0 mi WNW 9.2 mph - N/A   Clear
3:55 AM 53.6 °F 51.8 °F 94% 30.17 in 10.0 mi WNW 8.1 mph - N/A   Clear
4:15 AM 53.6 °F 51.8 °F 94% 30.18 in 10.0 mi WNW 8.1 mph - N/A   Clear
4:35 AM 53.6 °F 51.8 °F 94% 30.18 in 10.0 mi WNW 9.2 mph - N/A   Clear
4:55 AM 53.6 °F 51.8 °F 94% 30.19 in 10.0 mi WNW 9.2 mph - N/A   Clear
5:15 AM 53.6 °F 51.8 °F 94% 30.19 in 10.0 mi WNW 11.5 mph - N/A   Clear
5:35 AM 53.6 °F 50.0 °F 88% 30.20 in 10.0 mi NW 11.5 mph - N/A   Clear
5:55 AM 53.6 °F 50.0 °F 88% 30.20 in 10.0 mi NW 10.4 mph - N/A   Clear
6:15 AM 53.6 °F 50.0 °F 88% 30.20 in 10.0 mi NW 10.4 mph - N/A   Clear
6:35 AM 55.4 °F 50.0 °F 82% 30.21 in 10.0 mi NW 10.4 mph - N/A   Clear
6:55 AM 55.4 °F 50.0 °F 82% 30.21 in 10.0 mi NW 10.4 mph - N/A   Clear
7:15 AM 57.2 °F 50.0 °F 77% 30.22 in 10.0 mi NW 12.7 mph - N/A   Clear
7:35 AM 59.0 °F 50.0 °F 72% 30.23 in 10.0 mi NW 13.8 mph - N/A   Clear
7:55 AM 60.8 °F 48.2 °F 63% 30.23 in 10.0 mi NW 13.8 mph - N/A   Clear
8:35 AM 62.6 °F 46.4 °F 55% 30.24 in 10.0 mi NNW 17.3 mph - N/A   Clear
8:55 AM 64.4 °F 46.4 °F 52% 30.24 in 10.0 mi NW 17.3 mph - N/A   Clear
9:15 AM 66.2 °F 44.6 °F 46% 30.24 in 10.0 mi NW 17.3 mph - N/A   Clear
9:35 AM 66.2 °F 42.8 °F 43% 30.25 in 10.0 mi NNW 16.1 mph 23.0 mph N/A   Clear
9:55 AM 68.0 °F 42.8 °F 40% 30.24 in 10.0 mi NNW 16.1 mph 23.0 mph N/A   Clear
10:15 AM 68.0 °F 41.0 °F 37% 30.24 in 10.0 mi NW 17.3 mph 24.2 mph N/A   Clear
10:35 AM 69.8 °F 44.6 °F 40% 30.24 in 10.0 mi WNW 15.0 mph 20.7 mph N/A   Clear
10:55 AM 71.6 °F 44.6 °F 38% 30.24 in 10.0 mi NW 15.0 mph 23.0 mph N/A   Clear
11:15 AM 71.6 °F 41.0 °F 33% 30.24 in 10.0 mi NW 18.4 mph 28.8 mph N/A   Clear
11:35 AM 71.6 °F 42.8 °F 35% 30.23 in 10.0 mi NNW 16.1 mph 26.5 mph N/A   Clear
11:55 AM 71.6 °F 42.8 °F 35% 30.23 in 10.0 mi NW 17.3 mph 26.5 mph N/A   Clear
12:15 PM 73.4 °F 41.0 °F 31% 30.22 in 10.0 mi NW 19.6 mph 29.9 mph N/A   Partly Cloudy
12:35 PM 73.4 °F 41.0 °F 31% 30.21 in 10.0 mi WNW 25.3 mph - N/A   Partly Cloudy
12:55 PM 73.4 °F 39.2 °F 29% 30.21 in 10.0 mi NW 23.0 mph 31.1 mph N/A   Partly Cloudy
1:15 PM 75.2 °F 39.2 °F 27% 30.20 in 10.0 mi NW 20.7 mph 27.6 mph N/A   Clear
1:35 PM 75.2 °F 39.2 °F 27% 30.20 in 10.0 mi NW 18.4 mph 27.6 mph N/A   Partly Cloudy
1:55 PM 75.2 °F 39.2 °F 27% 30.19 in 10.0 mi WNW 15.0 mph 25.3 mph N/A   Partly Cloudy
2:15 PM 77.0 °F 39.2 °F 26% 30.19 in 10.0 mi NW 20.7 mph 26.5 mph N/A   Clear
2:35 PM 77.0 °F 37.4 °F 24% 30.18 in 10.0 mi NW 15.0 mph 24.2 mph N/A   Clear
2:55 PM 77.0 °F 37.4 °F 24% 30.18 in 10.0 mi WNW 17.3 mph - N/A   Partly Cloudy
3:15 PM 77.0 °F 39.2 °F 26% 30.18 in 10.0 mi NW 13.8 mph 23.0 mph N/A   Scattered Clouds
3:35 PM 77.0 °F 37.4 °F 24% 30.18 in 10.0 mi NW 20.7 mph - N/A   Partly Cloudy
3:55 PM 77.0 °F 37.4 °F 24% 30.17 in 10.0 mi NW 17.3 mph 27.6 mph N/A   Clear
4:15 PM 78.8 °F 37.4 °F 23% 30.17 in 10.0 mi WNW 18.4 mph 25.3 mph N/A   Clear
4:35 PM 77.0 °F 37.4 °F 24% 30.17 in 10.0 mi WNW 17.3 mph 25.3 mph N/A   Clear
4:55 PM 77.0 °F 37.4 °F 24% 30.17 in 10.0 mi NW 19.6 mph - N/A   Clear
5:15 PM 77.0 °F 35.6 °F 22% 30.16 in 10.0 mi NW 20.7 mph - N/A   Clear
5:35 PM 77.0 °F 35.6 °F 22% 30.16 in 10.0 mi NW 15.0 mph 24.2 mph N/A   Clear
5:55 PM 77.0 °F 35.6 °F 22% 30.15 in 10.0 mi NNW 18.4 mph 26.5 mph N/A   Clear
6:15 PM 77.0 °F 35.6 °F 22% 30.15 in 10.0 mi NW 17.3 mph 24.2 mph N/A   Clear
6:35 PM 75.2 °F 35.6 °F 24% 30.15 in 10.0 mi NW 13.8 mph 24.2 mph N/A   Clear
6:55 PM 75.2 °F 35.6 °F 24% 30.15 in 9.0 mi WNW 15.0 mph 23.0 mph N/A   Clear
7:15 PM 75.2 °F 35.6 °F 24% 30.15 in 10.0 mi NW 16.1 mph - N/A   Clear
7:35 PM 75.2 °F 35.6 °F 24% 30.15 in 10.0 mi NNW 10.4 mph 17.3 mph N/A   Clear
7:55 PM 73.4 °F 37.4 °F 27% 30.15 in 10.0 mi North 6.9 mph - N/A   Clear
8:15 PM 71.6 °F 37.4 °F 29% 30.15 in 10.0 mi North 4.6 mph - N/A   Clear
8:35 PM 69.8 °F 37.4 °F 31% 30.15 in 10.0 mi NNW 3.5 mph - N/A   Clear
8:55 PM 69.8 °F 37.4 °F 31% 30.15 in 10.0 mi North 3.5 mph - N/A   Clear
9:15 PM 68.0 °F 37.4 °F 33% 30.15 in 10.0 mi Calm Calm - N/A   Clear
9:35 PM 64.4 °F 41.0 °F 42% 30.16 in 10.0 mi Calm Calm - N/A   Clear
9:55 PM 68.0 °F 37.4 °F 33% 30.16 in 10.0 mi Calm Calm - N/A   Clear
10:15 PM 62.6 °F 41.0 °F 45% 30.16 in 10.0 mi Calm Calm - N/A   Clear
10:35 PM 60.8 °F 46.4 °F 59% 30.17 in 8.0 mi SSW 4.6 mph - N/A   Clear
10:55 PM 60.8 °F 44.6 °F 55% 30.16 in 10.0 mi SSW 4.6 mph - N/A   Clear
11:15 PM 62.6 °F 42.8 °F 48% 30.16 in 10.0 mi SSW 4.6 mph - N/A   Clear
11:35 PM 60.8 °F 42.8 °F 52% 30.16 in 10.0 mi SSW 5.8 mph - N/A   Clear
11:55 PM 59.0 °F 44.6 °F 59% 30.17 in 10.0 mi SW 5.8 mph - N/A   Clear